Starlink 3790

operational
NORAD ID: 52274 Int'l Des: 2022-041 Owner: SPXS Country: US Constellation: starlink
LEOCIRCULAR

Über Starlink 3790

Beschreibung wird geladen...

Live-Position

3D-Globus wird geladen...

Nächste Überflüge

Höhenverlauf

Altitude vs Time

uPlot chart will show altitude changes over time

Zweizeiliger Elementsatz

1 52274U 22041P 25296.62441887 .00000136 00000-0 26650-4 0 9996
2 52274 53.2190 4.4315 0001440 89.8838 270.2319 15.08842072193679
Epoch: 23. Okt. 2025 • Age: 28 hours

Aktueller Status

Höhe 556.9 km
Geschwindigkeit 7.58 km/s
Subsatellitenpunkt -47.56°S, 86.37°W
Startdatum 21. Apr. 2022
Alter 3.5 years
Typ internet

Technische Details

Klassifizierung Payload
Masse 297.00 kg
Trockenmasse 275.00 kg
Gesamtmasse 297.00 kg
Länge 0.20 m
Durchmesser 2.80 m
Spannweite 9.00 m
Form Box + pan
Hersteller SPXS
Bus-Typ Starlink
Phasenstatus In Orbit
Besitzer/Staat SPXS/US

Große Konstellationen

Loading constellations...